Flag for Australia Weather past 2 weeks in Brisbane, Queensland, Australia

Now
73 °F

Sunny.


Feels Like: 77 °F
Forecast: 51 / 74 °F
Wind: 8 mph from East

Location: Brisbane Airport M. O

Current Time: Apr 27, 2015 at 4:33:01 PM

Latest Report: Apr 27, 2015 at 4:00 PM


Visibility: 10 mi

Pressure: 30.01 "Hg

Humidity: 44%

Dew point: 50 °F

Location of BrisbaneLocation

Historic Weather in Brisbane — Graph

°F

Brisbane temperature yesterday

Maximum temperature yesterday: 73 °F (at 12:30 PM)
Minimum temperature yesterday: 57 °F (at 11:00 PM)
Average temperature yesterday: 66 °F

Past Weeks' High & Low Weather Summary

 TemperatureHumidityPressure
High81 °F (Apr 18, 11:30 AM)100% (Apr 18, 7:00 AM)30.30 "Hg (Apr 18, 7:00 AM)
Low52 °F (Apr 23, 5:00 AM)22% (Apr 26, 1:30 PM)29.74 "Hg (Apr 24, 2:00 PM)
Average69 °F71%30.02 "Hg
* Reported Apr 12 3:00 PM — Apr 27 3:30 PM, Brisbane, Weather by CustomWeather, © 2015

Note: Actual official high and low records may vary slightly from our data, if they occured in-between our weather recording intervals... More about our weather records

Advertising

Brisbane weather history for previous 24 hours

 ConditionsComfort  
Time TempWeatherWind HumidityBarometerVisibility
3:30 PM
Mon, Apr 27
73 °FSunny.10 mph47%30.01 "Hg10 mi
3:00 PM73 °FSunny.9 mph44%29.98 "Hg10 mi
2:30 PM73 °FSunny.9 mph47%29.98 "Hg10 mi
2:00 PM73 °FSunny.5 mph41%29.98 "Hg10 mi
1:30 PM75 °FSunny.8 mph41%30.01 "Hg10 mi
1:00 PM73 °FSunny.7 mph41%30.01 "Hg10 mi
12:30 PM73 °FSunny.6 mph41%30.01 "Hg10 mi
12:00 PM73 °FSunny.8 mph38%30.01 "Hg10 mi
11:30 AM72 °FSunny.10 mph41%30.04 "Hg10 mi
11:00 AM72 °FSunny.12 mph41%30.04 "Hg10 mi
10:00 AM70 °FSunny.15 mph40%30.07 "Hg10 mi
9:30 AM68 °FSunny.13 mph43%30.07 "Hg10 mi
9:00 AM66 °FSunny.10 mph46%30.07 "Hg10 mi
8:30 AM64 °FSunny.9 mph52%30.07 "Hg10 mi
8:00 AM61 °FSunny.7 mph63%30.04 "Hg10 mi
7:30 AM57 °FSunny.7 mph72%30.04 "Hg10 mi
7:00 AM55 °FSunny.7 mph72%30.04 "Hg10 mi
6:30 AM54 °FSunny.6 mph72%30.01 "Hg10 mi
6:00 AM52 °FPassing clouds.6 mph77%30.01 "HgN/A
5:30 AM52 °FPassing clouds.6 mph77%30.01 "HgN/A
5:00 AM52 °FClear.6 mph77%30.01 "Hg10 mi
4:30 AM52 °FClear.5 mph77%29.98 "Hg10 mi
4:00 AM54 °FClear.6 mph72%29.98 "Hg10 mi
3:30 AM52 °FClear.6 mph77%29.98 "Hg10 mi
3:00 AM54 °FClear.6 mph67%29.98 "Hg10 mi
2:30 AM54 °FClear.6 mph67%29.98 "Hg10 mi
2:00 AM55 °FClear.5 mph67%29.98 "Hg10 mi
1:30 AM55 °FClear.7 mph63%29.98 "Hg10 mi
1:00 AM55 °FClear.7 mph67%29.98 "Hg10 mi
12:30 AM54 °FClear.9 mph72%29.98 "Hg10 mi
12:00 AM57 °FClear.10 mph59%29.98 "Hg10 mi
11:30 PM
Sun, Apr 26
57 °FClear.10 mph59%29.98 "Hg10 mi
11:00 PM57 °FClear.12 mph59%30.01 "Hg10 mi
10:30 PM61 °FClear.10 mph48%30.01 "Hg10 mi
10:00 PM61 °FClear.8 mph48%30.01 "Hg10 mi
9:30 PM63 °FClear.10 mph45%29.98 "Hg10 mi
9:00 PM63 °FClear.13 mph42%29.98 "Hg10 mi
8:30 PM63 °FClear.20 mph45%29.98 "Hg10 mi
8:00 PM63 °FClear.13 mph45%29.98 "Hg10 mi
7:30 PM63 °FClear.13 mph45%29.98 "Hg10 mi
7:00 PM64 °FClear.14 mph40%29.95 "Hg10 mi
6:30 PM64 °FPassing clouds.12 mph40%29.95 "HgN/A
6:00 PM64 °FClear.13 mph40%29.92 "Hg10 mi
5:30 PM66 °FClear.16 mph37%29.92 "Hg10 mi
5:00 PM68 °FClear.16 mph35%29.89 "Hg10 mi
4:30 PM70 °FClear.17 mph31%29.89 "Hg10 mi
4:00 PM70 °FSunny.20 mph29%29.86 "Hg10 mi
Weather by CustomWeather, © 2015

See weather overviewHow to use our weather pages